Location: Quedlinburg
(51.7921°N, 11.1414°E)
Time: 08:50:02
(UTC+02:00)

SO-50 - Pass Details

Date: 09 March 2026
Orbit: 567 x 673 km, 64.6° (Epoch: 13 April)

Event Time Altitude Azimuth Distance (km) Brightness Sun altitude
Rises 19:12:32 0° 182° (S) 2,918 ? -10.6°
Reaches altitude 10° 19:15:07 10° 169° (S) 2,033 ? -11.0°
Maximum altitude 19:18:49 24° 116° (ESE) 1,349 ? -11.5°
Enters shadow 19:21:55 13° 68° (ENE) 1,880 ? -12.0°
